Williams, AZ

6:25 AM MST on February 22, 2017 (GMT -0700)
Williams

Weather History for KCMR - September, 2013

Change the Weather History Date:

Wednesday, September 25, 2013

  Actual Average (K40G) Record (K40G)
Temperature  
Mean Temperature 58 °F -  
Max Temperature 68 °F 71 °F 71 °F (1996)
Min Temperature 48 °F 62 °F 55 °F (1997)
Degree Days  
Heating Degree Days 7    
Growing Degree Days 8 (Base 50)    
Moisture  
Dew Point 30 °F    
Average Humidity 34    
Maximum Humidity 54    
Minimum Humidity 20    
Precipitation  
Precipitation 0.00 in - - ()
Sea Level Pressure  
Sea Level Pressure 30.02 in    
Wind  
Wind Speed 16 mph (South)    
Max Wind Speed 28 mph    
Max Gust Speed 44 mph    
Visibility 10 miles    
Events      
Averages and records for this station are not official NWS values.
T = Trace of Precipitation, MM = Missing Value Source: NWS Daily Summary

Daily Weather History Graph

Daily Weather History Graph

Search for Another Location

Airport or City:

Trip Planner

Search our weather history database for the weather conditions in past years. The results will help you decide how hot, cold, wet, or windy it might be!

Date:

Astronomy

Sep. 25, 2013 Rise Set
Actual Time 6:19 AM MST 6:20 PM MST
Civil Twilight 5:53 AM MST 6:46 PM MST
Nautical Twilight 5:24 AM MST 7:15 PM MST
Astronomical Twilight 4:54 AM MST 7:45 PM MST
Moon 10:41 PM MST (9/25) 12:16 PM MST (9/25)
Length of Visible Light 12h 52m
Length of Day
12h 01m
Waning Gibbous, 63% of the Moon is Illuminated
Sep 25
Waning Gibbous
Sep 26
Last Quarter
Oct 4
New
Oct 11
First Quarter
Oct 18
Full

Hourly Weather History & Observations

Time (MST) Temp. Dew Point Humidity Pressure Visibility Wind Dir Wind Speed Gust Speed Precip Events Conditions
12:15 AM 59.0 °F 24.8 °F 27% 30.14 in 10.0 mi South 12.7 mph 21.9 mph N/A   Clear
12:35 AM 57.2 °F 24.8 °F 29% 30.14 in 10.0 mi South 15.0 mph 19.6 mph N/A   Clear
12:55 AM 57.2 °F 24.8 °F 29% 30.14 in 10.0 mi South 12.7 mph 23.0 mph N/A   Clear
1:15 AM 57.2 °F 26.6 °F 31% 30.15 in 10.0 mi SSW 9.2 mph - N/A   Clear
1:35 AM 57.2 °F 26.6 °F 31% 30.15 in 10.0 mi SSW 8.1 mph - N/A   Clear
1:55 AM 55.4 °F 26.6 °F 33% 30.14 in 10.0 mi South 11.5 mph 18.4 mph N/A   Clear
2:15 AM 55.4 °F 26.6 °F 33% 30.13 in 10.0 mi South 12.7 mph 16.1 mph N/A   Clear
2:35 AM 55.4 °F 26.6 °F 33% 30.12 in 10.0 mi South 11.5 mph 16.1 mph N/A   Clear
2:55 AM 55.4 °F 26.6 °F 33% 30.11 in 10.0 mi South 11.5 mph 17.3 mph N/A   Clear
3:15 AM 55.4 °F 26.6 °F 33% 30.11 in 10.0 mi SSW 9.2 mph 19.6 mph N/A   Clear
3:35 AM 55.4 °F 26.6 °F 33% 30.10 in 10.0 mi SSW 9.2 mph 19.6 mph N/A   Clear
3:55 AM 55.4 °F 26.6 °F 33% 30.10 in 10.0 mi South 11.5 mph 19.6 mph N/A   Clear
4:15 AM 55.4 °F 26.6 °F 33% 30.09 in 10.0 mi South 11.5 mph 18.4 mph N/A   Clear
4:35 AM 55.4 °F 28.4 °F 36% 30.08 in 10.0 mi South 16.1 mph 20.7 mph N/A   Clear
4:55 AM 55.4 °F 30.2 °F 38% 30.08 in 10.0 mi SSE 13.8 mph 23.0 mph N/A   Clear
5:15 AM 53.6 °F 28.4 °F 38% 30.06 in 10.0 mi SE 10.4 mph 17.3 mph N/A   Clear
5:35 AM 50.0 °F 28.4 °F 43% 30.07 in 10.0 mi SE 9.2 mph - N/A   Clear
5:55 AM 48.2 °F 30.2 °F 50% 30.07 in 10.0 mi SSE 9.2 mph - N/A   Clear
6:15 AM 48.2 °F 32.0 °F 54% 30.07 in 10.0 mi South 8.1 mph - N/A   Clear
6:35 AM 53.6 °F 32.0 °F 44% 30.07 in 10.0 mi South 20.7 mph 25.3 mph N/A   Clear
6:55 AM 55.4 °F 32.0 °F 41% 30.07 in 10.0 mi South 17.3 mph 24.2 mph N/A   Clear
7:15 AM 55.4 °F 32.0 °F 41% 30.07 in 10.0 mi South 17.3 mph 25.3 mph N/A   Clear
7:35 AM 57.2 °F 32.0 °F 38% 30.07 in 10.0 mi South 18.4 mph 25.3 mph N/A   Clear
7:55 AM 57.2 °F 33.8 °F 41% 30.07 in 10.0 mi South 17.3 mph 24.2 mph N/A   Clear
8:15 AM 59.0 °F 32.0 °F 36% 30.07 in 10.0 mi South 19.6 mph 26.5 mph N/A   Clear
8:35 AM 59.0 °F 32.0 °F 36% 30.08 in 10.0 mi South 18.4 mph 25.3 mph N/A   Clear
8:55 AM 59.0 °F 32.0 °F 36% 30.07 in 10.0 mi South 15.0 mph 25.3 mph N/A   Clear
9:15 AM 60.8 °F 33.8 °F 36% 30.07 in 10.0 mi SSW 21.9 mph 26.5 mph N/A   Clear
9:35 AM 62.6 °F 32.0 °F 32% 30.05 in 10.0 mi SSW 20.7 mph 34.5 mph N/A   Clear
9:55 AM 62.6 °F 32.0 °F 32% 30.05 in 10.0 mi South 19.6 mph 29.9 mph N/A   Clear
10:15 AM 64.4 °F 32.0 °F 30% 30.06 in 10.0 mi SSW 19.6 mph 29.9 mph N/A   Clear
10:35 AM 64.4 °F 32.0 °F 30% 30.05 in 10.0 mi South 23.0 mph 29.9 mph N/A   Clear
10:55 AM 64.4 °F 32.0 °F 30% 30.04 in 10.0 mi SSW 20.7 mph 32.2 mph N/A   Clear
11:15 AM 64.4 °F 33.8 °F 32% 30.04 in 10.0 mi South 19.6 mph 32.2 mph N/A   Clear
11:35 AM 64.4 °F 35.6 °F 34% 30.03 in 10.0 mi SSW 24.2 mph 34.5 mph N/A   Clear
11:55 AM 64.4 °F 33.8 °F 32% 30.02 in 10.0 mi South 20.7 mph 38.0 mph N/A   Clear
12:15 PM 66.2 °F 33.8 °F 30% 30.01 in 10.0 mi South 23.0 mph 38.0 mph N/A   Clear
12:35 PM 68.0 °F 32.0 °F 26% 30.01 in 10.0 mi South 20.7 mph 33.4 mph N/A   Clear
12:55 PM 68.0 °F 26.6 °F 21% 30.00 in 10.0 mi SSW 25.3 mph 34.5 mph N/A   Clear
1:15 PM 68.0 °F 28.4 °F 23% 29.99 in 10.0 mi SSW 24.2 mph 43.7 mph N/A   Clear
1:35 PM 68.0 °F 28.4 °F 23% 29.97 in 10.0 mi SW 23.0 mph 32.2 mph N/A   Clear
1:55 PM 68.0 °F 26.6 °F 21% 29.96 in 10.0 mi SSW 24.2 mph 36.8 mph N/A   Clear
2:15 PM 68.0 °F 24.8 °F 20% 29.96 in 10.0 mi SSW 27.6 mph 42.6 mph N/A   Clear
2:35 PM 68.0 °F 28.4 °F 23% 29.96 in 10.0 mi South 25.3 mph 36.8 mph N/A   Clear
2:55 PM 68.0 °F 26.6 °F 21% 29.96 in 10.0 mi SSW 23.0 mph 36.8 mph N/A   Clear
3:15 PM 68.0 °F 26.6 °F 21% 29.95 in 10.0 mi SW 27.6 mph 39.1 mph N/A   Clear
3:35 PM 66.2 °F 26.6 °F 23% 29.95 in 10.0 mi SSW 23.0 mph 38.0 mph N/A   Clear
3:55 PM 66.2 °F 28.4 °F 24% 29.95 in 10.0 mi SSW 26.5 mph 38.0 mph N/A   Clear
4:15 PM 66.2 °F 28.4 °F 24% 29.95 in 10.0 mi SSW 20.7 mph 32.2 mph N/A   Clear
4:35 PM 66.2 °F 28.4 °F 24% 29.94 in 10.0 mi SSW 23.0 mph 33.4 mph N/A   Clear
4:55 PM 64.4 °F 28.4 °F 26% 29.94 in 10.0 mi South 23.0 mph 33.4 mph N/A   Clear
5:15 PM 64.4 °F 32.0 °F 30% 29.94 in 10.0 mi South 24.2 mph 32.2 mph N/A   Clear
5:35 PM 64.4 °F 32.0 °F 30% 29.94 in 10.0 mi SW 20.7 mph 32.2 mph N/A   Clear
5:55 PM 62.6 °F 32.0 °F 32% 29.94 in 10.0 mi SSW 17.3 mph 34.5 mph N/A   Clear
6:15 PM 60.8 °F 32.0 °F 34% 29.94 in 10.0 mi South 18.4 mph 31.1 mph N/A   Clear
6:35 PM 59.0 °F 32.0 °F 36% 29.94 in 10.0 mi SSW 19.6 mph 26.5 mph N/A   Clear
6:55 PM 59.0 °F 32.0 °F 36% 29.94 in 10.0 mi South 15.0 mph 25.3 mph N/A   Clear
7:15 PM 59.0 °F 32.0 °F 36% 29.94 in 10.0 mi South 17.3 mph 28.8 mph N/A   Clear
7:35 PM 59.0 °F 32.0 °F 36% 29.95 in 10.0 mi South 12.7 mph 28.8 mph N/A   Clear
7:55 PM 57.2 °F 32.0 °F 38% 29.95 in 10.0 mi South 17.3 mph 23.0 mph N/A   Clear
8:15 PM 57.2 °F 32.0 °F 38% 29.96 in 10.0 mi South 15.0 mph 23.0 mph N/A   Clear
8:35 PM 57.2 °F 32.0 °F 38% 29.95 in 10.0 mi South 16.1 mph 23.0 mph N/A   Clear
8:55 PM 57.2 °F 32.0 °F 38% 29.95 in 10.0 mi South 16.1 mph 27.6 mph N/A   Clear
9:15 PM 57.2 °F 32.0 °F 38% 29.95 in 10.0 mi South 12.7 mph 26.5 mph N/A   Clear
9:35 PM 57.2 °F 32.0 °F 38% 29.95 in 10.0 mi South 17.3 mph 29.9 mph N/A   Clear
9:55 PM 57.2 °F 32.0 °F 38% 29.94 in 10.0 mi South 21.9 mph 27.6 mph N/A   Clear
10:15 PM 55.4 °F 33.8 °F 44% 29.94 in 10.0 mi South 15.0 mph 32.2 mph N/A   Clear
10:35 PM 55.4 °F 35.6 °F 47% 29.94 in 10.0 mi South 18.4 mph 26.5 mph N/A   Clear
10:55 PM 55.4 °F 35.6 °F 47% 29.94 in 10.0 mi South 19.6 mph 27.6 mph N/A   Clear
11:15 PM 55.4 °F 35.6 °F 47% 29.93 in 10.0 mi South 23.0 mph 29.9 mph N/A   Clear
11:35 PM 55.4 °F 35.6 °F 47% 29.93 in 10.0 mi SSW 20.7 mph 27.6 mph N/A   Clear
11:55 PM 55.4 °F 35.6 °F 47% 29.92 in 10.0 mi South 20.7 mph 35.7 mph N/A   Clear